Regional Weather Roundup
Issued by NWS

Home | Current Version | Previous Version | Text Only | Print | Product List | Glossary Off
Versions: 1 2 3 4 5 6 7 8 9 10 11 12 13 14 15 16 17 18 19 20 21 22 23 24 25 26 27 28 29 30 31 32 33 34 35 36 37 38 39 40 41 42 43 44 45 46 47 48 49 50

000
ASUS45 KBOU 091407
RWRCO

WEATHER ROUNDUP FOR COLORADO
NATIONAL WEATHER SERVICE DENVER/BOULDER CO
700 AM MST FRI DEC 09 2016

NOTE: "FAIR" INDICATES FEW OR NO CLOUDS BELOW 12000 FEET WITH NO
SIGNIFICANT WEATHER AND/OR OBSTRUCTIONS TO VISIBILITY.

COZ001>005-013-030-031-091500-
...NORTHWEST COLORADO...

CITY           SKY/WX    TMP DP  RH WIND       PRES   REMARKS
CRAIG          CLOUDY    25  20  81 CALM      30.20R
HAYDEN         MOCLDY    21  16  79 E9        30.20R WCI  11
MEEKER         CLOUDY    34  20  56 SW6       30.22R WCI  29
MOUNT WERNER   NOT AVBL
STEAMBOAT SPGS CLOUDY    17  15  90 CALM      30.21R
WALDEN           N/A     28  21  74 SW12G18   30.14R WCI  18
$$

COZ006>008-011-091500-
...WEST CENTRAL VALLEYS...

CITY           SKY/WX    TMP DP  RH WIND       PRES   REMARKS
GRAND JUNCTION CLOUDY    24  19  81 CALM      30.31R
MONTROSE       CLOUDY    27  18  69 SW3       30.33R
EAGLE          LGT SNOW  27  25  93 E9        30.27R FOG     WCI  17
RIFLE          CLOUDY    24  16  71 CALM      30.33R
DELTA          NOT AVBL
NUCLA          FAIR      27  18  69 SE5       30.34R WCI  21
$$

COZ017>023-064>068-091500-
...SOUTHWEST COLORADO...

CITY           SKY/WX    TMP DP  RH WIND       PRES   REMARKS
DURANGO        FAIR      21  14  74 E5        30.31S WCI  15
CORTEZ         FAIR      22  20  92 CALM      30.32R
PAGOSA SPRINGS FAIR      17  11  78 CALM      30.32S
TELLURIDE      CLOUDY    30  23  75 CALM      30.31R
WOLF CREEK PAS CLOUDY    12  12 100 S15       30.32S WCI  -4
$$

COZ009-010-012-014-032>034-037-058>063-091500-
...CENTRAL COLORADO...

CITY           SKY/WX    TMP DP  RH WIND       PRES   REMARKS
ASPEN          NOT AVBL
BUENA VISTA    CLOUDY    34  19  53 NW10G17   30.15R WCI  26
COPPER MTN     LGT SNOW  21  18  86 MISG      30.19R VSB 1
BERTHOUD PASS  SNOW      14   3  62 MISG      30.09S VSB 1/4
COTTONWOOD PAS MOCLDY    32  21  64 W22G49    30.11S WCI  19
GUNNISON       FLURRIES  17  14  88 CALM      30.32R
KREMMLING      FLURRIES  34  25  69 SW16G25   30.18R WCI  23
LEADVILLE      LGT SNOW  23  19  85 N8        30.17R FOG     WCI  14
MONARCH PASS   CLOUDY    18  14  86 W40G47    30.29S WCI  -4
SALIDA         FAIR      37  20  50 SW12G22   30.24R
SUNLIGHT       LGT SNOW  19  18  93 SW15G28   30.26R VSB 3/4 WCI   5
WILKERSON PASS FAIR      19  18  93 W16G24    30.13R WCI   5
$$

COZ069>075-091500-
...SAN LUIS VALLEY/SANGRE DE CRISTO MOUNTAINS...

CITY           SKY/WX    TMP DP  RH WIND       PRES   REMARKS
ALAMOSA        FAIR       3  -3  76 CALM      30.27R
LA VETA PASS   FAIR      18  14  86 NE31G41   30.12S WCI  -2
SAGUACHE       NOT AVBL
$$

COZ035-036-038>040-091500-
...NORTHERN COLORADO FRONT RANGE...

CITY           SKY/WX    TMP DP  RH WIND       PRES   REMARKS
DENVER INTL AP FAIR       7   2  80 VRB6      30.07R WCI  -3
DMNS CITY PARK   N/A     12   6  77 SW5G10    30.07S WCI   4
AURORA         PTCLDY    15  11  85 S10       30.06R WCI   2
FRONT RANGE AP PTCLDY     9   3  78 N5        30.08  WCI   0
ERIE MUNI ARPT FAIR       3  -1  85 S5        30.09S WCI  -7
BOULDER MUN AP FAIR       7   3  85 CALM      30.09R
CENTENNIAL     FAIR      13   9  84 VRB3      30.05R
BROOMFIELD     PTCLDY    12   9  85 SW5       30.06R WCI   4
FORT COLLINS   FAIR       7   3  85 CALM      30.09R
LONGMONT       FAIR       4   0  81 SW7       30.10F WCI  -8
$$

COZ041-046-047-076>085-087-088-091500-
...PIKES PEAK/PALMER DIVIDE AND SOUTHERN FOOTHILLS...

CITY           SKY/WX    TMP DP  RH WIND       PRES   REMARKS
COLO. SPRINGS  FAIR      13   7  77 N10       30.10R WCI   0
A. F. ACADEMY  FAIR      13   9  85 N5        30.09R WCI   5
SCHRIEVER AFB  NOT AVBL
ELLICOTT       LGT RAIN N/A N/A N/A N5          N/A
FALCON         FAIR      29  21  70 W14       30.10R WCI  19
FORT CARSON    FAIR       9   4  79 NW8       30.09R WCI  -3
LIMON          FAIR       0  -2  91 CALM      30.11R
MONUMENT HILL  FAIR      27  18  69 SW7       30.08R WCI  19
TRINIDAD       FAIR      14   7  73 W3        30.13R
$$

COZ042>045-048>051-090-091-091500-
...NORTHEAST COLORADO...

CITY           SKY/WX    TMP DP  RH WIND       PRES   REMARKS
GREELEY ARPT   FAIR       6   1  80 W3        30.13S
AKRON          FAIR       5   0  79 SW7       30.11S WCI  -7
BURLINGTON     FAIR       8   1  73 S13       30.18F WCI  -8
WRAY           NOT AVBL
STERLING       FAIR       9   3  78 CALM      30.14F
HOLYOKE        FAIR      14   9  79 S12       30.20F WCI   0
FORT MORGAN    FAIR       4   0  84 W6        30.13R WCI  -7
$$

COZ086-089-092>099-091500-
...SOUTHEAST COLORADO...

CITY           SKY/WX    TMP DP  RH WIND       PRES   REMARKS
PUEBLO         FAIR       7   2  80 W5        30.17R WCI  -2
LA JUNTA       FAIR       8   2  76 SW8       30.19F WCI  -4
LAMAR          FAIR       8   3  80 SW9       30.21S WCI  -5
SPRINGFIELD      N/A     17  13  84 S7        30.17F WCI   8
$$



USA.gov is the U.S. government's official web portal to all federal, state and local government web resources and services.